• In Hungary
  • List of Countries
  • For 7 days
  • Water Temperature
  • Satellite Maps
  • Weather Map
  • News
  • Weather Widgets
  • user-avatar
    Login

    Hourly Weather Koniuszowa

    Today, 22 October, Monday

    Time Temperature Precipitation Wind Pressure Humidity
    00:00 +5°C° 0 mm 1 mps 732 mmHg 89%
    01:00 +4°C° 0 mm 0 mps 732 mmHg 89%
    02:00 +3°C° 0 mm 0 mps 732 mmHg 89%
    03:00 +3°C° 0 mm 0 mps 732 mmHg 89%
    04:00 +3°C° 0 mm 0 mps 731 mmHg 90%
    05:00 +3°C° 0 mm 0 mps 731 mmHg 88%
    06:00 +3°C° 0 mm 0 mps 731 mmHg 87%
    07:00 +4°C° 0 mm 0 mps 731 mmHg 86%
    08:00 +6°C° 0 mm 0 mps 731 mmHg 77%
    09:00 +8°C° 0 mm 0 mps 732 mmHg 68%
    10:00 +10°C° 0 mm 0 mps 732 mmHg 59%
    11:00 +11°C° 0 mm 0 mps 731 mmHg 56%
    12:00 +13°C° 0 mm 1 mps 731 mmHg 53%
    13:00 +14°C° 0 mm 1 mps 731 mmHg 50%
    14:00 +13°C° 0 mm 1 mps 730 mmHg 54%
    15:00 +12°C° 0 mm 1 mps 730 mmHg 59%
    16:00 +11°C° 0 mm 1 mps 729 mmHg 64%
    17:00 +9°C° 0 mm 1 mps 729 mmHg 68%
    18:00 +8°C° 0 mm 1 mps 729 mmHg 72%
    19:00 +7°C° 0 mm 1 mps 729 mmHg 76%
    20:00 +7°C° 0 mm 1 mps 730 mmHg 77%
    21:00 +6°C° 0 mm 2 mps 730 mmHg 77%
    22:00 +6°C° 0 mm 2 mps 730 mmHg 78%
    23:00 +6°C° 0.2 mm 2 mps 730 mmHg 80%

    Tomorrow, 23 October, Tuesday

    Time Temperature Precipitation Wind Pressure Humidity
    00:00 +7°C° 0.2 mm 2 mps 730 mmHg 82%
    01:00 +7°C° 0.2 mm 2 mps 729 mmHg 83%
    02:00 +7°C° 0.2 mm 3 mps 729 mmHg 85%
    03:00 +5°C° 0.2 mm 3 mps 729 mmHg 87%
    04:00 +5°C° 0.2 mm 3 mps 729 mmHg 88%
    05:00 +5°C° 0 mm 3 mps 729 mmHg 89%
    06:00 +4°C° 0 mm 3 mps 729 mmHg 90%
    07:00 +4°C° 0 mm 3 mps 729 mmHg 91%
    08:00 +4°C° 0 mm 3 mps 728 mmHg 83%
    09:00 +5°C° 0 mm 3 mps 728 mmHg 76%
    10:00 +6°C° 0 mm 4 mps 728 mmHg 69%
    11:00 +7°C° 0.1 mm 4 mps 727 mmHg 67%
    12:00 +7°C° 0.1 mm 4 mps 726 mmHg 65%
    13:00 +7°C° 0.1 mm 4 mps 725 mmHg 64%
    14:00 +7°C° 0.3 mm 4 mps 724 mmHg 67%
    15:00 +6°C° 0.3 mm 5 mps 723 mmHg 70%
    16:00 +6°C° 0.3 mm 5 mps 722 mmHg 73%
    17:00 +6°C° 0.5 mm 5 mps 721 mmHg 76%
    18:00 +5°C° 0.5 mm 6 mps 721 mmHg 78%
    19:00 +5°C° 0.5 mm 6 mps 720 mmHg 80%
    20:00 +5°C° 0.4 mm 6 mps 719 mmHg 81%
    21:00 +5°C° 0.4 mm 7 mps 718 mmHg 81%
    22:00 +6°C° 0.4 mm 7 mps 718 mmHg 81%
    23:00 +6°C° 0.8 mm 7 mps 717 mmHg 83%

    Day after tomorrow, 24 October, Wednesday

    Time Temperature Precipitation Wind Pressure Humidity
    00:00 +7°C° 0.8 mm 6 mps 716 mmHg 85%
    01:00 +8°C° 0.8 mm 6 mps 715 mmHg 86%
    02:00 +8°C° 1.3 mm 7 mps 714 mmHg 86%
    03:00 +7°C° 1.3 mm 8 mps 713 mmHg 86%
    04:00 +7°C° 1.3 mm 8 mps 713 mmHg 85%
    05:00 +7°C° 2 mm 8 mps 713 mmHg 82%
    06:00 +6°C° 2 mm 8 mps 713 mmHg 79%
    07:00 +5°C° 2 mm 8 mps 713 mmHg 76%
    08:00 +3°C° 0.3 mm 9 mps 714 mmHg 70%
    09:00 +3°C° 0.3 mm 9 mps 715 mmHg 65%
    10:00 +2°C° 0.3 mm 9 mps 715 mmHg 60%
    11:00 +2°C° 0.1 mm 9 mps 716 mmHg 57%
    12:00 +3°C° 0.1 mm 9 mps 716 mmHg 54%
    13:00 +3°C° 0.1 mm 9 mps 716 mmHg 51%
    14:00 +3°C° 0.1 mm 9 mps 717 mmHg 52%
    15:00 +2°C° 0.1 mm 8 mps 717 mmHg 53%
    16:00 +3°C° 0.1 mm 7 mps 717 mmHg 54%
    17:00 +3°C° 0.1 mm 7 mps 718 mmHg 55%
    18:00 +2°C° 0.1 mm 7 mps 719 mmHg 57%
    19:00 +2°C° 0.1 mm 7 mps 719 mmHg 58%
    20:00 0°C° 0 mm 7 mps 720 mmHg 60%
    21:00 +1°C° 0 mm 6 mps 720 mmHg 61%
    22:00 +1°C° 0 mm 6 mps 721 mmHg 62%
    23:00 +1°C° 0 mm 6 mps 721 mmHg 64%

    25 October, Thursday

    Time Temperature Precipitation Wind Pressure Humidity
    00:00 +1°C° 0 mm 6 mps 722 mmHg 65%
    01:00 -1°C° 0 mm 6 mps 722 mmHg 67%
    02:00 -1°C° 0 mm 6 mps 723 mmHg 69%
    03:00 -1°C° 0 mm 6 mps 723 mmHg 72%
    04:00 0°C° 0 mm 5 mps 723 mmHg 75%
    05:00 0°C° 0 mm 5 mps 724 mmHg 76%
    06:00 -1°C° 0 mm 5 mps 724 mmHg 78%
    07:00 -1°C° 0 mm 5 mps 724 mmHg 79%
    08:00 +1°C° 0 mm 5 mps 725 mmHg 73%
    09:00 +2°C° 0 mm 6 mps 725 mmHg 68%
    10:00 +4°C° 0 mm 6 mps 725 mmHg 62%
    11:00 +4°C° 0 mm 6 mps 725 mmHg 60%
    12:00 +5°C° 0 mm 6 mps 724 mmHg 58%
    13:00 +7°C° 0 mm 6 mps 724 mmHg 57%
    14:00 +6°C° 0.1 mm 5 mps 724 mmHg 63%
    15:00 +6°C° 0.1 mm 5 mps 723 mmHg 70%
    16:00 +5°C° 0.1 mm 4 mps 723 mmHg 77%
    17:00 +5°C° 0 mm 4 mps 723 mmHg 78%
    18:00 +6°C° 0 mm 4 mps 723 mmHg 79%
    19:00 +6°C° 0 mm 4 mps 723 mmHg 81%
    20:00 +6°C° 0 mm 4 mps 723 mmHg 82%
    21:00 +6°C° 0 mm 4 mps 723 mmHg 84%
    22:00 +6°C° 0 mm 4 mps 723 mmHg 86%
    23:00 +6°C° 0 mm 4 mps 723 mmHg 87%

    26 October, Friday

    Time Temperature Precipitation Wind Pressure Humidity
    00:00 +7°C° 0 mm 3 mps 723 mmHg 89%
    01:00 +5°C° 0 mm 3 mps 723 mmHg 90%
    02:00 +5°C° 0 mm 3 mps 723 mmHg 90%
    03:00 +5°C° 0 mm 3 mps 723 mmHg 90%
    04:00 +5°C° 0 mm 3 mps 722 mmHg 90%
    05:00 +5°C° 0 mm 3 mps 722 mmHg 90%
    06:00 +6°C° 0 mm 2 mps 722 mmHg 91%
    07:00 +6°C° 0 mm 2 mps 723 mmHg 91%
    08:00 +7°C° 0 mm 2 mps 723 mmHg 83%
    09:00 +9°C° 0 mm 3 mps 723 mmHg 76%
    10:00 +10°C° 0 mm 3 mps 723 mmHg 69%
    11:00 +11°C° 0 mm 3 mps 722 mmHg 66%
    12:00 +12°C° 0 mm 3 mps 722 mmHg 63%
    13:00 +13°C° 0 mm 3 mps 722 mmHg 60%
    14:00 +12°C° 0 mm 3 mps 721 mmHg 65%
    15:00 +12°C° 0 mm 2 mps 721 mmHg 69%
    16:00 +10°C° 0 mm 2 mps 721 mmHg 73%
    17:00 +9°C° 0 mm 2 mps 720 mmHg 76%
    18:00 +9°C° 0 mm 3 mps 720 mmHg 79%
    19:00 +8°C° 0 mm 3 mps 720 mmHg 82%
    20:00 +8°C° 0 mm 3 mps 720 mmHg 83%
    21:00 +7°C° 0 mm 3 mps 720 mmHg 84%
    22:00 +7°C° 0 mm 3 mps 720 mmHg 85%
    23:00 +7°C° 0 mm 3 mps 719 mmHg 86%

    27 October, Saturday

    Time Temperature Precipitation Wind Pressure Humidity
    00:00 +7°C° 0 mm 3 mps 719 mmHg 86%
    01:00 +7°C° 0 mm 3 mps 719 mmHg 86%
    02:00 +7°C° 0 mm 3 mps 719 mmHg 87%
    03:00 +7°C° 0 mm 3 mps 718 mmHg 88%
    04:00 +7°C° 0 mm 3 mps 718 mmHg 88%
    05:00 +7°C° 0 mm 3 mps 718 mmHg 88%
    06:00 +8°C° 0 mm 3 mps 718 mmHg 89%
    07:00 +8°C° 0 mm 3 mps 717 mmHg 89%
    08:00 +10°C° 0 mm 3 mps 717 mmHg 84%
    09:00 +12°C° 0 mm 4 mps 717 mmHg 78%
    10:00 +14°C° 0 mm 4 mps 717 mmHg 73%
    11:00 +14°C° 0 mm 4 mps 716 mmHg 74%
    12:00 +14°C° 0 mm 5 mps 716 mmHg 74%
    13:00 +14°C° 0 mm 5 mps 715 mmHg 75%
    14:00 +14°C° 0.1 mm 5 mps 715 mmHg 75%
    15:00 +14°C° 0.1 mm 5 mps 714 mmHg 75%
    16:00 +14°C° 0.1 mm 5 mps 714 mmHg 75%
    17:00 +14°C° 0 mm 5 mps 714 mmHg 75%
    18:00 +14°C° 0 mm 5 mps 714 mmHg 75%
    19:00 +13°C° 0 mm 5 mps 713 mmHg 75%
    20:00 +13°C° 0 mm 5 mps 713 mmHg 75%
    21:00 +13°C° 0 mm 5 mps 713 mmHg 76%
    22:00 +13°C° 0 mm 5 mps 713 mmHg 76%
    23:00 +14°C° 0.1 mm 5 mps 713 mmHg 76%
    Show more